Airfield :
LOGIN :

Register | Disclaimer

   EN    FR    IT 

 










Legend :    VFR   Marginal VFR   IFR   Intensive IFR   Very Intensive IFR
Visi :
Ceiling :
>= 8 km
>= 3000ft
5 to 8 km
1000 to 3000 ft
1500m to 5 km
500 to 1000 ft
800 to 1500m
200 to 500 ft
< 800m
< 200 ft
Symbols :   Thunderstorms  Fog  Heavy snow  Heavy precipitations  Wind > 20 kt
SIGMETs :     Misc.  Thunderstorms  Icing  Turbulence  Mountain Waves  Volcanic Ashes







- Airport Elevation : 0 ft


ENSL - Sleipner A Platform

CURRENT METAR :
  • 210620Z AUTO 30015KT 9999NDV FEW008/// 13/12 Q1010 W11/S3

EXPIRED METARs :
  • 210550Z AUTO 30016KT 9999NDV FEW008/// 13/12 Q1010 W11/S3
  • 210520Z AUTO 30017KT 9999NDV FEW009/// 13/12 Q1009 W11/S3
  • 210450Z AUTO 30018KT 9999NDV SCT008/// 13/12 Q1009 W11/S3
  • 210420Z AUTO 30021KT 9999NDV SCT007/// 13/12 Q1009 W11/S3
  • 210350Z AUTO 30018KT 9999NDV BKN007/// 14/12 Q1008 W12/S3

Expired Forecast.
No reported NOTAMs for that airfield.



MET'MAP, your aeronautical weather chart ! - Copyright ORBIFLY December 2007 - Disclaimer

ORBIFLY MET'MAP TEAM :

Programming & Development : Alexandra Zaïnal
Concept & Development : Baudouin d'Aumeries
Co-Development & Prog : Marc-Olivier Méhu
Technical & hardware support : Manuel Goepfert

Contact : metmap@orbifly.com




SOURCES & CREDITS :

   NOAA